Precipitable_Water
1.07 1.05 1.03 1.03 0.99 0.95 0.93 0.93 0.91 0.89 0.85 0.83 0.81 0.81 0.81 0.80 0.76 0.74 0.74 0.72 0.72 0.74 0.78 0.80 0.81 0.83 0.85 0.87 0.89 0.91 0.91 0.93 0.93 0.91 0.93 0.95 0.97 0.99 1.03 1.05 1.09 1.15 1.21 1.27 1.31 1.35 1.39 1.44 1.43 1.41 1.39 1.41 1.43 1.44 1.46 1.48 1.50 1.52 1.50 1.50 1.50 1.50 1.52 1.50 1.50 1.48 1.46 1.44 1.43
1.11 1.07 1.05 1.03 1.01 0.97 0.97 0.95 0.93 0.93 0.89 0.87 0.85 0.83 0.83 0.81 0.78 0.76 0.76 0.74 0.74 0.74 0.76 0.81 0.85 0.87 0.89 0.91 0.89 0.89 0.89 0.91 0.91 0.93 0.95 0.97 0.99 1.01 1.03 1.05 1.07 1.15 1.21 1.23 1.27 1.33 1.39 1.43 1.41 1.39 1.39 1.41 1.43 1.43 1.44 1.50 1.50 1.50 1.50 1.50 1.50 1.52 1.54 1.52 1.50 1.48 1.48 1.46 1.43
1.15 1.13 1.09 1.05 1.03 1.01 0.97 0.95 0.93 0.91 0.89 0.89 0.89 0.87 0.85 0.83 0.81 0.80 0.78 0.78 0.76 0.76 0.78 0.81 0.85 0.89 0.91 0.91 0.89 0.93 0.95 0.97 0.99 0.99 0.99 1.01 1.01 1.01 1.01 1.03 1.07 1.13 1.19 1.21 1.27 1.33 1.39 1.43 1.41 1.39 1.39 1.41 1.41 1.41 1.44 1.50 1.50 1.50 1.48 1.48 1.52 1.54 1.54 1.52 1.50 1.50 1.48 1.48 1.43
1.17 1.15 1.11 1.05 1.05 1.05 1.03 1.01 0.99 0.95 0.91 0.91 0.91 0.89 0.89 0.87 0.85 0.83 0.81 0.81 0.80 0.80 0.78 0.80 0.83 0.85 0.87 0.87 0.87 0.93 0.99 1.01 1.03 1.03 1.03 1.03 1.01 1.01 1.01 1.03 1.07 1.09 1.15 1.21 1.29 1.35 1.39 1.39 1.39 1.39 1.39 1.39 1.41 1.43 1.46 1.48 1.50 1.50 1.50 1.52 1.54 1.54 1.54 1.52 1.52 1.50 1.50 1.48 1.48
1.15 1.15 1.13 1.07 1.05 1.05 1.05 1.05 1.03 1.01 0.97 0.97 0.95 0.95 0.93 0.93 0.93 0.93 0.91 0.89 0.87 0.85 0.83 0.81 0.83 0.85 0.87 0.95 0.95 0.95 0.95 0.97 0.99 1.01 1.01 1.01 1.03 1.03 1.03 1.03 1.07 1.09 1.15 1.23 1.31 1.35 1.37 1.37 1.37 1.37 1.37 1.39 1.43 1.46 1.48 1.50 1.50 1.50 1.52 1.52 1.54 1.54 1.52 1.52 1.52 1.52 1.50 1.50 1.48
1.15 1.15 1.15 1.11 1.09 1.09 1.07 1.09 1.09 1.07 1.03 1.03 1.01 0.99 0.97 0.99 1.01 1.03 1.03 1.01 1.01 0.99 0.97 0.91 0.91 0.99 1.05 1.09 1.09 1.05 0.99 0.99 0.99 0.99 1.01 1.03 1.03 1.03 1.05 1.05 1.07 1.11 1.13 1.17 1.29 1.33 1.33 1.35 1.33 1.33 1.33 1.39 1.43 1.46 1.48 1.50 1.50 1.50 1.50 1.48 1.50 1.52 1.52 1.50 1.52 1.52 1.52 1.50 1.48
1.15 1.15 1.15 1.13 1.11 1.09 1.09 1.09 1.11 1.09 1.09 1.07 1.05 1.03 1.01 1.01 1.05 1.07 1.07 1.09 1.09 1.07 1.05 1.01 1.05 1.09 1.11 1.13 1.13 1.13 1.11 1.05 1.05 1.03 1.05 1.05 1.05 1.05 1.07 1.07 1.09 1.13 1.15 1.19 1.27 1.31 1.31 1.31 1.31 1.29 1.33 1.39 1.43 1.44 1.46 1.48 1.48 1.44 1.44 1.46 1.48 1.50 1.50 1.50 1.50 1.50 1.50 1.48 1.46
1.17 1.17 1.17 1.17 1.13 1.11 1.11 1.11 1.11 1.11 1.11 1.11 1.09 1.07 1.05 1.05 1.07 1.07 1.09 1.09 1.07 1.05 1.05 1.05 1.05 1.05 1.07 1.09 1.11 1.11 1.09 1.07 1.07 1.05 1.05 1.05 1.05 1.07 1.09 1.11 1.11 1.15 1.17 1.21 1.27 1.29 1.29 1.29 1.29 1.31 1.33 1.35 1.39 1.41 1.43 1.44 1.44 1.43 1.41 1.44 1.46 1.48 1.48 1.48 1.50 1.50 1.48 1.46 1.43
1.15 1.17 1.19 1.19 1.19 1.15 1.13 1.13 1.13 1.11 1.11 1.13 1.13 1.11 1.09 1.09 1.07 1.07 1.07 1.05 1.07 1.07 1.07 1.07 1.07 1.05 1.05 1.03 1.05 1.05 1.05 1.05 1.05 1.05 1.05 1.05 1.07 1.07 1.11 1.13 1.13 1.15 1.19 1.23 1.27 1.27 1.27 1.27 1.29 1.31 1.35 1.37 1.37 1.39 1.41 1.43 1.41 1.41 1.39 1.41 1.43 1.46 1.46 1.48 1.48 1.48 1.46 1.43 1.39
1.07 1.13 1.17 1.19 1.19 1.21 1.21 1.17 1.17 1.13 1.13 1.13 1.13 1.15 1.15 1.13 1.15 1.15 1.15 1.15 1.15 1.15 1.13 1.15 1.13 1.13 1.11 1.09 1.09 1.07 1.05 1.05 1.05 1.05 1.05 1.07 1.07 1.07 1.09 1.13 1.13 1.15 1.19 1.23 1.25 1.25 1.25 1.25 1.27 1.31 1.33 1.37 1.37 1.39 1.39 1.41 1.39 1.39 1.39 1.39 1.41 1.43 1.44 1.44 1.44 1.44 1.43 1.39 1.37
0.99 1.07 1.15 1.17 1.19 1.19 1.19 1.19 1.19 1.19 1.17 1.15 1.13 1.15 1.15 1.17 1.17 1.19 1.21 1.21 1.19 1.19 1.17 1.19 1.21 1.21 1.21 1.21 1.19 1.17 1.13 1.11 1.07 1.07 1.05 1.07 1.07 1.09 1.09 1.13 1.15 1.17 1.19 1.23 1.25 1.25 1.25 1.25 1.25 1.27 1.31 1.35 1.37 1.37 1.39 1.41 1.39 1.39 1.39 1.39 1.39 1.39 1.39 1.41 1.41 1.41 1.41 1.37 1.35
0.91 0.99 1.07 1.13 1.15 1.17 1.19 1.17 1.19 1.19 1.19 1.17 1.17 1.15 1.15 1.17 1.17 1.19 1.21 1.21 1.21 1.21 1.21 1.21 1.21 1.23 1.23 1.25 1.25 1.25 1.23 1.21 1.15 1.11 1.09 1.09 1.09 1.09 1.11 1.13 1.17 1.19 1.21 1.25 1.27 1.27 1.27 1.25 1.25 1.25 1.27 1.31 1.35 1.37 1.37 1.39 1.37 1.37 1.37 1.37 1.37 1.35 1.35 1.35 1.37 1.37 1.37 1.35 1.33
0.85 0.93 0.99 1.03 1.09 1.11 1.15 1.15 1.17 1.17 1.19 1.19 1.19 1.19 1.19 1.19 1.21 1.23 1.25 1.25 1.25 1.25 1.23 1.23 1.21 1.21 1.23 1.25 1.27 1.27 1.27 1.25 1.21 1.17 1.15 1.13 1.13 1.13 1.13 1.15 1.19 1.21 1.25 1.27 1.27 1.29 1.29 1.27 1.27 1.25 1.27 1.29 1.31 1.33 1.33 1.29 1.31 1.33 1.33 1.35 1.33 1.33 1.33 1.33 1.33 1.35 1.33 1.33 1.31
0.80 0.85 0.91 0.95 0.99 1.03 1.07 1.11 1.13 1.15 1.17 1.19 1.21 1.21 1.23 1.23 1.25 1.25 1.27 1.29 1.29 1.29 1.27 1.25 1.23 1.21 1.21 1.23 1.25 1.27 1.27 1.27 1.27 1.23 1.19 1.19 1.17 1.17 1.17 1.17 1.21 1.23 1.25 1.27 1.29 1.29 1.29 1.29 1.29 1.27 1.27 1.27 1.27 1.27 1.27 1.27 1.29 1.31 1.31 1.31 1.31 1.31 1.31 1.31 1.33 1.33 1.33 1.33 1.31
0.68 0.78 0.85 0.87 0.91 0.95 0.99 1.01 1.07 1.13 1.17 1.17 1.19 1.21 1.23 1.23 1.25 1.25 1.27 1.27 1.29 1.29 1.29 1.27 1.25 1.21 1.19 1.21 1.23 1.25 1.27 1.27 1.27 1.25 1.23 1.21 1.21 1.19 1.19 1.21 1.23 1.25 1.25 1.27 1.29 1.29 1.31 1.31 1.31 1.29 1.29 1.27 1.27 1.27 1.27 1.27 1.29 1.31 1.31 1.31 1.31 1.31 1.31 1.31 1.33 1.35 1.35 1.33 1.33
0.52 0.64 0.76 0.80 0.83 0.87 0.91 0.93 0.99 1.05 1.13 1.17 1.19 1.21 1.21 1.23 1.23 1.25 1.25 1.25 1.27 1.29 1.29 1.29 1.27 1.23 1.21 1.21 1.23 1.23 1.25 1.27 1.25 1.25 1.23 1.23 1.23 1.21 1.21 1.23 1.23 1.25 1.25 1.27 1.29 1.29 1.31 1.33 1.33 1.33 1.33 1.33 1.31 1.31 1.29 1.29 1.31 1.31 1.33 1.33 1.33 1.33 1.33 1.33 1.35 1.35 1.35 1.33 1.33
0.38 0.50 0.62 0.70 0.74 0.80 0.83 0.87 0.91 0.97 1.05 1.11 1.15 1.19 1.21 1.21 1.23 1.23 1.25 1.25 1.25 1.27 1.27 1.27 1.29 1.27 1.25 1.23 1.23 1.23 1.23 1.25 1.25 1.23 1.23 1.23 1.21 1.21 1.23 1.23 1.25 1.25 1.25 1.27 1.29 1.31 1.33 1.35 1.37 1.37 1.37 1.35 1.33 1.31 1.31 1.31 1.31 1.33 1.33 1.35 1.35 1.35 1.35 1.35 1.35 1.33 1.31 1.31 1.29
0.30 0.38 0.46 0.54 0.62 0.68 0.74 0.80 0.83 0.91 0.97 1.03 1.09 1.13 1.17 1.21 1.21 1.23 1.23 1.25 1.25 1.25 1.25 1.25 1.27 1.29 1.27 1.25 1.25 1.23 1.21 1.23 1.23 1.23 1.21 1.21 1.21 1.21 1.23 1.23 1.25 1.27 1.27 1.27 1.31 1.33 1.33 1.35 1.37 1.37 1.37 1.37 1.33 1.33 1.33 1.33 1.33 1.33 1.33 1.33 1.35 1.35 1.35 1.35 1.33 1.31 1.29 1.27 1.25
0.22 0.26 0.32 0.38 0.46 0.56 0.62 0.70 0.76 0.83 0.91 0.95 0.99 1.05 1.11 1.15 1.19 1.21 1.23 1.23 1.25 1.23 1.23 1.23 1.25 1.27 1.27 1.27 1.25 1.25 1.23 1.23 1.23 1.23 1.23 1.23 1.23 1.23 1.25 1.25 1.25 1.27 1.29 1.29 1.31 1.33 1.35 1.37 1.37 1.35 1.35 1.35 1.33 1.33 1.33 1.33 1.33 1.33 1.33 1.33 1.33 1.33 1.33 1.31 1.29 1.27 1.27 1.25 1.23
0.20 0.22 0.24 0.28 0.34 0.42 0.50 0.58 0.64 0.74 0.83 0.87 0.91 0.97 1.01 1.07 1.13 1.17 1.21 1.21 1.23 1.25 1.23 1.23 1.23 1.23 1.23 1.27 1.25 1.25 1.25 1.23 1.23 1.23 1.23 1.23 1.23 1.25 1.25 1.25 1.27 1.27 1.29 1.31 1.31 1.33 1.35 1.35 1.35 1.35 1.35 1.33 1.33 1.33 1.33 1.33 1.33 1.31 1.31 1.31 1.31 1.31 1.31 1.29 1.27 1.27 1.25 1.23 1.23
0.20 0.20 0.22 0.24 0.26 0.32 0.38 0.44 0.52 0.64 0.74 0.80 0.83 0.87 0.93 0.97 1.03 1.07 1.13 1.19 1.21 1.23 1.23 1.23 1.23 1.23 1.21 1.21 1.23 1.23 1.23 1.23 1.23 1.23 1.21 1.21 1.21 1.23 1.25 1.25 1.27 1.29 1.29 1.31 1.31 1.33 1.33 1.33 1.33 1.33 1.33 1.31 1.31 1.31 1.31 1.31 1.29 1.29 1.29 1.29 1.29 1.29 1.29 1.27 1.27 1.25 1.23 1.21 1.21
0.20 0.20 0.22 0.22 0.24 0.26 0.28 0.34 0.40 0.52 0.64 0.68 0.74 0.80 0.83 0.87 0.93 0.97 1.05 1.15 1.17 1.19 1.21 1.21 1.23 1.23 1.21 1.21 1.21 1.21 1.23 1.23 1.23 1.21 1.21 1.19 1.19 1.21 1.23 1.25 1.25 1.27 1.27 1.29 1.29 1.31 1.31 1.31 1.31 1.31 1.31 1.29 1.29 1.29 1.29 1.29 1.29 1.27 1.27 1.27 1.27 1.27 1.27 1.25 1.25 1.23 1.23 1.21 1.17
0.20 0.20 0.22 0.22 0.22 0.24 0.24 0.26 0.34 0.42 0.50 0.58 0.64 0.68 0.74 0.78 0.83 0.87 0.95 1.05 1.09 1.13 1.15 1.19 1.21 1.21 1.21 1.23 1.19 1.19 1.21 1.21 1.19 1.19 1.19 1.19 1.19 1.19 1.21 1.23 1.23 1.25 1.25 1.27 1.29 1.29 1.29 1.29 1.29 1.29 1.29 1.27 1.27 1.27 1.27 1.27 1.27 1.25 1.25 1.25 1.25 1.25 1.25 1.25 1.23 1.23 1.21 1.19 1.15
0.20 0.20 0.22 0.22 0.22 0.22 0.22 0.24 0.28 0.32 0.38 0.44 0.52 0.58 0.64 0.68 0.72 0.78 0.85 0.95 1.01 1.03 1.07 1.11 1.17 1.19 1.21 1.23 1.21 1.19 1.17 1.17 1.15 1.15 1.17 1.17 1.17 1.17 1.19 1.19 1.21 1.21 1.23 1.25 1.27 1.27 1.27 1.27 1.27 1.27 1.27 1.27 1.27 1.25 1.25 1.25 1.23 1.23 1.23 1.23 1.23 1.23 1.21 1.21 1.21 1.21 1.19 1.17 1.15
0.20 0.20 0.22 0.22 0.22 0.22 0.22 0.22 0.24 0.26 0.30 0.34 0.40 0.46 0.52 0.58 0.62 0.68 0.74 0.83 0.89 0.95 0.99 1.03 1.09 1.13 1.17 1.21 1.21 1.19 1.17 1.15 1.15 1.13 1.15 1.15 1.15 1.15 1.17 1.17 1.19 1.21 1.23 1.25 1.25 1.27 1.27 1.27 1.27 1.25 1.25 1.25 1.25 1.25 1.23 1.23 1.21 1.21 1.21 1.21 1.21 1.19 1.17 1.19 1.19 1.19 1.19 1.17 1.15
0.20 0.20 0.22 0.22 0.22 0.22 0.22 0.22 0.24 0.24 0.26 0.28 0.32 0.36 0.40 0.46 0.52 0.58 0.64 0.72 0.78 0.83 0.89 0.93 0.99 1.05 1.09 1.13 1.13 1.13 1.15 1.15 1.15 1.13 1.13 1.13 1.13 1.15 1.15 1.15 1.17 1.19 1.21 1.23 1.25 1.25 1.27 1.27 1.27 1.25 1.25 1.23 1.23 1.23 1.21 1.21 1.21 1.21 1.19 1.19 1.17 1.17 1.15 1.15 1.15 1.15 1.17 1.17 1.15
0.20 0.20 0.20 0.22 0.22 0.22 0.22 0.22 0.24 0.24 0.24 0.26 0.26 0.28 0.32 0.36 0.42 0.46 0.54 0.64 0.68 0.74 0.78 0.83 0.89 0.93 0.97 0.95 0.99 1.03 1.09 1.15 1.15 1.13 1.13 1.13 1.13 1.13 1.13 1.15 1.15 1.17 1.19 1.21 1.23 1.25 1.25 1.27 1.25 1.25 1.25 1.25 1.23 1.23 1.21 1.21 1.21 1.21 1.19 1.19 1.17 1.15 1.15 1.13 1.13 1.13 1.13 1.13 1.13
0.20 0.20 0.20 0.22 0.22 0.22 0.22 0.22 0.24 0.24 0.24 0.26 0.26 0.26 0.28 0.30 0.34 0.38 0.42 0.46 0.58 0.64 0.70 0.74 0.80 0.80 0.80 0.83 0.87 0.93 0.99 1.11 1.13 1.13 1.13 1.13 1.11 1.11 1.13 1.15 1.15 1.17 1.19 1.21 1.23 1.23 1.23 1.23 1.23 1.23 1.25 1.25 1.23 1.23 1.23 1.23 1.23 1.21 1.21 1.19 1.17 1.15 1.13 1.11 1.11 1.11 1.09 1.11 1.11
0.20 0.20 0.20 0.20 0.22 0.22 0.22 0.22 0.24 0.24 0.24 0.26 0.26 0.26 0.28 0.28 0.30 0.32 0.34 0.38 0.48 0.54 0.58 0.64 0.62 0.66 0.70 0.74 0.80 0.83 0.91 1.01 1.07 1.11 1.13 1.13 1.13 1.11 1.11 1.13 1.15 1.17 1.19 1.19 1.21 1.21 1.21 1.21 1.21 1.23 1.23 1.23 1.23 1.23 1.23 1.23 1.21 1.21 1.19 1.19 1.17 1.13 1.13 1.11 1.11 1.09 1.09 1.09 1.09
0.20 0.20 0.20 0.20 0.20 0.22 0.22 0.22 0.24 0.24 0.26 0.26 0.26 0.26 0.26 0.26 0.28 0.28 0.30 0.32 0.38 0.42 0.42 0.46 0.50 0.54 0.60 0.66 0.70 0.76 0.80 0.83 0.95 1.03 1.07 1.09 1.11 1.11 1.13 1.13 1.13 1.15 1.17 1.19 1.19 1.19 1.19 1.19 1.19 1.21 1.21 1.21 1.21 1.21 1.21 1.21 1.21 1.19 1.19 1.15 1.15 1.13 1.11 1.11 1.09 1.09 1.09 1.09 1.09
0.20 0.20 0.20 0.20 0.20 0.22 0.22 0.22 0.24 0.24 0.26 0.26 0.26 0.26 0.26 0.26 0.26 0.28 0.28 0.30 0.32 0.36 0.38 0.42 0.44 0.46 0.50 0.56 0.62 0.66 0.72 0.76 0.85 0.93 0.99 1.03 1.07 1.09 1.11 1.13 1.13 1.15 1.15 1.17 1.19 1.19 1.19 1.19 1.19 1.19 1.21 1.21 1.21 1.21 1.21 1.19 1.19 1.17 1.17 1.15 1.13 1.13 1.11 1.11 1.11 1.09 1.09 1.09 1.09
0.22 0.22 0.20 0.20 0.20 0.22 0.22 0.22 0.24 0.24 0.24 0.24 0.24 0.24 0.24 0.24 0.26 0.28 0.28 0.30 0.30 0.32 0.34 0.36 0.38 0.40 0.44 0.48 0.52 0.56 0.62 0.68 0.74 0.81 0.89 0.95 1.01 1.05 1.09 1.11 1.13 1.15 1.15 1.15 1.15 1.17 1.17 1.19 1.19 1.19 1.19 1.19 1.19 1.19 1.19 1.19 1.17 1.17 1.15 1.15 1.15 1.13 1.13 1.11 1.11 1.09 1.09 1.09 1.09
0.22 0.22 0.22 0.20 0.20 0.22 0.22 0.22 0.24 0.24 0.24 0.24 0.24 0.24 0.24 0.24 0.26 0.26 0.28 0.28 0.30 0.30 0.32 0.32 0.34 0.36 0.38 0.42 0.44 0.48 0.52 0.58 0.64 0.72 0.81 0.87 0.93 0.97 1.03 1.07 1.11 1.13 1.15 1.15 1.15 1.15 1.17 1.19 1.19 1.21 1.21 1.19 1.19 1.19 1.19 1.17 1.17 1.15 1.15 1.15 1.15 1.15 1.13 1.11 1.09 1.09 1.09 1.09 1.09
0.22 0.22 0.22 0.22 0.22 0.22 0.22 0.22 0.22 0.22 0.22 0.22 0.24 0.24 0.24 0.24 0.24 0.26 0.26 0.28 0.28 0.30 0.32 0.32 0.34 0.36 0.38 0.40 0.42 0.44 0.46 0.50 0.56 0.62 0.68 0.78 0.83 0.89 0.93 1.01 1.05 1.11 1.13 1.13 1.15 1.15 1.17 1.17 1.19 1.21 1.21 1.21 1.21 1.19 1.19 1.17 1.17 1.15 1.15 1.15 1.15 1.15 1.13 1.11 1.11 1.09 1.09 1.09 1.07
0.22 0.22 0.22 0.22 0.22 0.22 0.22 0.22 0.22 0.22 0.22 0.22 0.22 0.24 0.24 0.24 0.24 0.26 0.26 0.28 0.28 0.30 0.30 0.32 0.34 0.36 0.36 0.38 0.40 0.42 0.42 0.46 0.48 0.54 0.58 0.64 0.74 0.80 0.85 0.91 0.99 1.03 1.07 1.09 1.11 1.13 1.15 1.17 1.17 1.19 1.21 1.21 1.21 1.19 1.19 1.17 1.15 1.15 1.15 1.15 1.15 1.15 1.13 1.13 1.11 1.11 1.09 1.07 1.07
0.24 0.24 0.22 0.22 0.22 0.22 0.22 0.22 0.22 0.22 0.22 0.22 0.22 0.22 0.24 0.24 0.24 0.26 0.26 0.28 0.28 0.28 0.30 0.30 0.32 0.32 0.34 0.34 0.36 0.38 0.40 0.42 0.44 0.48 0.52 0.56 0.66 0.72 0.78 0.83 0.89 0.93 0.95 1.01 1.07 1.09 1.13 1.15 1.17 1.17 1.19 1.19 1.19 1.19 1.19 1.17 1.17 1.15 1.15 1.15 1.15 1.13 1.13 1.13 1.11 1.11 1.09 1.05 1.05
0.24 0.24 0.24 0.22 0.22 0.22 0.22 0.22 0.22 0.22 0.22 0.22 0.22 0.24 0.24 0.24 0.24 0.26 0.26 0.28 0.28 0.28 0.28 0.30 0.30 0.30 0.32 0.32 0.34 0.36 0.38 0.40 0.42 0.44 0.48 0.50 0.54 0.62 0.70 0.78 0.81 0.85 0.89 0.93 0.99 1.03 1.09 1.13 1.15 1.17 1.17 1.17 1.17 1.17 1.17 1.17 1.15 1.15 1.15 1.15 1.15 1.15 1.15 1.13 1.11 1.09 1.07 1.05 1.05
0.26 0.24 0.24 0.24 0.24 0.22 0.22 0.22 0.22 0.22 0.22 0.22 0.24 0.24 0.24 0.24 0.24 0.26 0.26 0.28 0.28 0.26 0.28 0.30 0.30 0.30 0.32 0.32 0.34 0.36 0.38 0.40 0.40 0.42 0.44 0.46 0.50 0.52 0.58 0.66 0.72 0.78 0.83 0.87 0.91 0.97 1.01 1.07 1.11 1.13 1.15 1.15 1.15 1.15 1.15 1.15 1.13 1.13 1.13 1.13 1.13 1.13 1.15 1.15 1.13 1.09 1.05 1.05 1.05
0.26 0.26 0.24 0.24 0.24 0.24 0.24 0.22 0.22 0.22 0.22 0.24 0.24 0.24 0.24 0.24 0.26 0.26 0.26 0.28 0.28 0.28 0.28 0.28 0.30 0.30 0.32 0.32 0.32 0.34 0.36 0.38 0.40 0.40 0.42 0.44 0.46 0.50 0.52 0.52 0.62 0.70 0.76 0.81 0.85 0.91 0.95 1.01 1.07 1.11 1.13 1.13 1.13 1.15 1.15 1.13 1.13 1.13 1.13 1.13 1.13 1.13 1.13 1.13 1.11 1.09 1.07 1.07 1.05
0.26 0.26 0.26 0.24 0.24 0.24 0.24 0.22 0.24 0.24 0.24 0.24 0.24 0.24 0.24 0.26 0.26 0.26 0.26 0.28 0.28 0.28 0.28 0.28 0.30 0.32 0.32 0.32 0.32 0.32 0.34 0.36 0.38 0.40 0.40 0.42 0.46 0.48 0.48 0.50 0.56 0.62 0.68 0.74 0.80 0.85 0.89 0.95 1.01 1.05 1.09 1.11 1.13 1.13 1.13 1.13 1.11 1.11 1.11 1.11 1.11 1.11 1.09 1.11 1.11 1.09 1.09 1.07 1.07
0.28 0.26 0.26 0.26 0.26 0.26 0.24 0.24 0.24 0.24 0.24 0.24 0.24 0.24 0.26 0.26 0.26 0.26 0.26 0.28 0.28 0.28 0.28 0.28 0.30 0.32 0.32 0.32 0.32 0.32 0.32 0.34 0.36 0.38 0.40 0.42 0.44 0.44 0.46 0.48 0.50 0.54 0.60 0.64 0.72 0.78 0.83 0.89 0.95 1.01 1.05 1.09 1.11 1.11 1.11 1.11 1.09 1.09 1.09 1.09 1.11 1.09 1.07 1.07 1.09 1.09 1.07 1.09 1.09
Wind_Speed
26 25 22 17 12 10 8 7 5 5 5 5 5 4 3 4 5 7 10 12 13 15 15 16 16 16 17 18 19 19 20 20 21 22 23 24 25 27 29 31 33 34 36 36 36 36 35 35 35 35 34 34 35 35 34 33 32 33 34 35 35 37 38 40 40 38 37 35 34
26 26 24 21 16 12 10 8 7 6 5 5 5 5 4 4 5 7 9 11 12 14 15 16 16 17 17 18 19 20 20 21 22 23 23 24 26 27 29 30 32 34 35 36 36 35 35 34 34 34 34 33 33 32 31 31 32 33 34 35 35 37 38 39 39 37 35 34 34
25 25 25 24 21 16 13 10 8 7 6 6 6 5 5 5 5 6 7 9 11 13 14 15 16 17 17 19 20 20 21 22 23 23 24 25 26 27 28 30 31 33 35 36 36 35 34 34 34 34 33 33 32 30 29 30 32 33 34 35 36 37 38 38 37 36 34 34 34
24 24 24 24 23 21 17 14 11 9 8 8 8 8 7 7 7 7 7 8 9 10 12 14 15 16 17 18 19 20 21 22 23 24 24 25 26 27 28 30 31 33 35 36 36 35 34 34 34 34 34 33 31 28 27 27 30 32 34 35 36 37 37 37 36 35 34 34 34
26 24 23 22 23 22 20 18 16 13 11 10 10 9 9 8 7 7 7 7 8 8 10 12 13 14 15 16 17 19 20 22 23 24 24 25 26 27 28 29 31 33 35 36 35 34 34 34 33 33 33 32 29 26 24 25 26 29 31 33 35 35 35 35 35 34 33 33 34
27 25 23 22 21 21 20 19 17 15 13 11 10 9 8 8 7 7 6 6 7 7 8 10 12 13 13 14 15 16 18 20 21 22 23 24 25 26 28 29 31 33 35 35 35 34 33 34 33 33 32 30 26 24 23 24 25 26 28 30 32 33 34 34 34 33 32 32 33
27 27 25 23 21 20 20 19 18 16 14 12 10 9 8 7 7 7 7 7 7 7 8 9 11 12 13 13 14 15 16 18 19 20 22 23 24 26 28 29 31 33 35 35 34 33 33 33 33 32 30 27 24 23 24 24 24 25 26 28 30 32 33 33 33 32 31 32 32
27 27 26 24 22 20 19 19 18 16 14 13 11 9 8 7 7 8 8 8 8 8 9 10 11 13 13 14 15 16 16 17 18 20 21 22 24 25 27 29 31 33 34 34 33 32 32 32 32 30 28 26 25 25 25 25 25 25 26 27 29 31 32 32 32 32 31 31 31
28 27 26 25 24 22 20 19 18 17 15 14 13 11 9 7 7 7 8 8 9 9 10 11 12 13 14 15 15 16 17 17 18 20 21 22 24 25 27 29 31 33 33 33 31 31 31 31 31 29 28 26 26 26 27 27 26 25 26 27 28 30 31 31 32 32 31 31 31
29 27 26 24 23 22 21 20 19 17 16 15 15 13 10 8 6 6 7 8 8 9 10 11 12 12 13 14 15 16 17 17 18 19 21 22 23 25 27 29 31 32 32 32 31 30 30 30 30 29 29 27 27 27 28 28 27 26 25 26 27 28 29 30 31 32 32 31 31
30 29 27 25 23 21 20 19 19 18 17 16 15 14 12 9 7 5 5 5 6 7 8 9 10 11 12 13 14 15 16 17 18 19 20 22 23 25 27 29 30 31 31 31 30 30 30 30 30 30 30 29 28 28 28 28 27 26 25 25 26 27 28 29 31 32 32 32 31
30 29 28 27 25 23 20 18 18 18 17 17 15 15 14 12 9 6 4 4 4 5 5 6 7 8 9 10 11 13 15 16 18 19 20 21 23 25 27 28 29 30 30 30 30 30 30 30 31 30 30 30 29 28 28 28 28 26 25 25 25 27 28 30 30 31 32 32 30
30 29 29 28 27 26 23 21 18 17 17 17 16 15 14 13 11 8 6 5 4 4 3 4 5 7 8 9 10 11 13 15 17 18 20 21 23 25 27 28 29 29 30 30 29 29 29 30 30 30 29 29 29 28 28 28 28 27 25 25 26 28 29 30 31 31 32 31 30
31 30 29 28 27 26 25 24 21 19 17 16 15 15 14 13 12 11 8 6 5 4 3 3 4 5 7 8 10 11 12 14 16 18 19 21 23 25 27 28 29 29 29 29 29 29 29 29 29 29 29 29 28 27 27 27 27 26 26 26 27 28 29 30 31 31 31 31 30
31 30 29 28 27 26 25 25 23 21 19 16 14 13 13 13 12 12 11 9 7 5 4 3 3 4 6 8 9 10 12 13 15 17 19 20 22 24 26 27 28 29 29 29 29 29 29 29 29 29 28 27 27 26 26 25 25 24 24 25 26 28 29 30 31 31 30 29 28
30 30 29 29 28 26 25 24 23 22 21 19 17 14 12 12 12 12 12 11 10 8 6 4 4 4 5 7 8 10 11 13 15 16 18 20 22 24 25 27 28 29 29 29 29 29 30 30 29 29 28 27 26 26 25 24 23 23 23 23 25 27 29 30 30 30 28 27 26
30 29 29 29 28 27 26 25 23 22 22 21 20 17 15 13 12 11 11 11 9 8 7 6 5 4 4 5 7 8 10 12 14 15 17 19 21 23 25 26 27 28 28 28 29 29 29 29 28 28 28 28 27 26 25 24 23 22 22 22 22 24 27 28 28 28 26 25 25
29 29 29 28 28 27 26 25 24 23 22 21 20 19 18 16 14 12 11 11 9 8 7 6 5 4 3 4 5 7 9 11 13 15 16 18 20 22 24 25 26 26 27 27 27 27 28 28 27 26 26 26 26 25 24 24 23 22 21 20 21 22 24 25 26 26 25 25 25
29 28 28 28 27 27 26 26 25 23 22 21 20 19 18 17 16 14 12 11 10 8 7 6 5 4 3 2 3 5 7 9 12 14 16 17 19 21 23 24 24 25 25 24 24 25 25 26 25 24 24 23 23 23 23 23 23 22 21 21 20 21 22 23 24 24 25 25 26
28 28 27 27 27 26 26 25 25 24 22 21 20 19 18 17 16 15 13 12 10 9 7 6 5 5 3 1 1 3 6 8 10 12 15 17 18 20 21 22 23 23 23 23 23 22 22 23 24 24 23 22 21 21 21 21 22 21 21 21 21 20 21 21 22 23 23 25 26
27 27 27 26 26 26 25 25 25 24 23 22 21 19 18 17 16 14 13 11 10 9 8 7 5 4 4 2 0 2 5 7 9 11 13 16 18 19 20 21 22 22 22 22 23 22 22 22 23 24 24 24 23 22 21 21 21 20 20 21 21 21 21 21 21 22 23 24 25
26 26 26 26 26 25 25 25 24 24 23 22 21 20 19 18 16 15 13 10 9 9 9 8 7 5 3 3 2 2 4 6 8 10 12 14 16 18 20 21 22 22 23 23 24 24 24 24 24 25 25 25 24 22 22 21 21 20 20 21 21 21 21 21 21 22 23 24 25
25 25 25 25 25 25 25 25 24 24 23 23 22 21 20 18 17 15 13 11 9 8 8 8 8 6 4 2 2 2 3 6 8 10 12 13 15 17 19 21 22 22 23 24 24 24 24 24 24 24 24 24 23 22 22 22 21 21 21 21 22 22 22 22 21 22 23 24 26
25 25 25 25 25 25 25 25 24 24 24 23 22 21 20 19 18 17 15 13 11 9 7 7 7 7 6 4 2 2 3 5 7 10 12 14 15 17 18 20 21 22 23 23 23 23 23 22 22 22 22 22 22 22 22 22 21 21 21 21 21 22 22 21 21 22 23 24 26
24 24 24 24 24 24 24 24 24 24 24 23 22 22 21 20 19 18 17 15 13 11 9 7 7 7 6 5 3 3 3 4 6 8 11 14 16 17 19 20 21 22 23 23 23 22 22 22 22 21 21 21 22 22 22 21 21 20 20 19 20 20 20 20 20 20 22 23 24
24 24 24 24 24 24 24 24 24 24 24 23 23 22 21 20 20 19 18 16 15 13 11 9 8 7 6 6 5 4 4 5 6 7 9 12 15 17 19 20 21 23 23 24 24 23 23 23 22 22 22 22 22 22 22 22 21 20 20 19 19 19 19 19 19 19 20 21 22
24 24 24 24 24 24 24 24 24 24 24 24 23 23 22 21 20 19 19 18 16 15 13 12 10 9 8 7 6 6 6 6 6 7 8 10 13 16 19 20 22 23 24 24 25 25 24 24 24 23 23 23 23 23 23 22 22 22 21 21 21 21 20 20 20 20 20 20 21
24 24 24 24 24 23 23 23 23 23 23 23 23 23 22 22 21 21 20 18 17 16 14 13 12 11 9 8 8 7 7 8 8 8 9 10 11 14 17 19 21 23 24 25 25 25 25 25 25 25 25 25 24 24 24 23 22 22 21 22 22 22 22 22 22 21 21 21 22
24 24 24 24 24 23 23 23 23 23 23 23 23 23 22 22 22 21 21 20 19 17 16 14 13 12 11 11 10 9 9 9 9 10 10 11 11 13 14 17 20 22 24 25 26 26 26 26 26 26 26 26 26 25 25 24 23 22 22 22 22 22 23 23 23 22 22 23 23
24 24 24 24 24 24 24 24 23 23 23 23 23 23 22 22 22 22 21 21 20 18 17 15 14 13 12 12 12 11 11 11 11 11 12 12 13 13 14 16 18 20 23 25 26 27 27 27 27 27 27 27 27 26 26 26 25 24 23 23 23 23 23 24 24 24 23 23 23
24 24 24 24 24 24 24 24 24 24 24 23 23 23 23 22 22 22 21 21 20 19 18 17 15 14 13 13 12 13 13 13 13 13 13 13 14 14 15 16 17 18 20 23 25 27 28 28 28 28 28 28 27 27 27 27 27 26 26 25 25 25 25 25 25 25 24 24 24
24 24 24 24 24 24 24 24 24 24 24 24 24 24 23 23 22 22 21 21 21 20 19 18 17 15 14 13 13 13 14 14 14 15 15 15 16 16 16 16 17 17 18 20 23 25 27 28 29 28 28 28 28 28 28 28 28 28 27 27 27 27 27 26 26 26 25 25 25
24 24 24 24 24 24 25 25 25 25 25 25 25 25 24 24 23 22 22 21 21 21 20 19 18 17 16 15 14 14 14 15 15 16 16 17 18 18 18 18 18 18 18 19 20 22 25 27 29 29 29 29 29 29 28 28 28 28 28 28 28 28 27 27 27 27 26 26 26
24 24 24 25 25 25 25 25 25 25 25 25 25 25 25 25 24 24 23 22 21 21 20 20 19 18 17 16 15 15 15 15 16 16 17 18 19 19 20 20 20 20 20 20 20 21 22 24 27 28 29 30 29 29 29 29 29 28 28 28 28 28 27 27 27 27 27 27 27
24 24 25 25 25 25 26 26 26 26 26 26 26 26 26 25 25 25 24 23 22 21 21 20 19 19 18 17 16 15 15 16 16 17 17 18 19 20 20 21 21 21 21 21 21 21 21 22 23 25 27 29 29 29 30 29 29 29 29 28 28 28 27 27 27 27 27 27 27
24 24 25 25 25 26 26 26 26 26 27 27 27 26 26 26 25 25 25 24 23 22 22 21 20 19 19 18 17 16 16 16 16 17 17 18 19 19 20 21 22 22 22 22 22 23 23 22 22 23 24 26 27 29 29 29 29 29 29 29 28 28 28 27 27 27 27 27 27
24 24 25 25 26 26 26 26 27 27 27 27 27 27 27 26 26 25 25 25 24 24 23 22 21 20 20 19 18 17 17 16 17 17 18 18 19 19 20 21 21 22 22 22 23 23 24 24 24 23 23 23 25 26 27 28 28 28 28 28 28 28 28 27 27 27 27 27 27
24 25 25 25 26 26 26 27 27 27 27 27 27 27 27 26 26 26 25 25 25 24 24 23 22 21 20 20 19 18 17 17 17 17 18 18 19 19 20 20 21 21 21 22 22 22 23 24 24 24 23 23 23 24 25 26 27 27 28 28 28 28 28 27 27 27 27 27 27
25 25 25 26 26 26 26 27 27 27 27 27 27 27 27 26 26 26 25 25 25 25 24 24 23 22 21 20 19 18 18 18 17 17 18 18 19 19 20 20 20 21 21 21 21 22 22 22 23 24 24 24 24 24 24 25 26 27 27 27 28 28 28 28 28 28 28 28 28
25 25 26 26 26 26 27 27 27 27 27 27 27 27 27 27 26 26 26 25 25 25 25 24 24 23 22 21 20 19 18 18 18 18 18 18 18 19 19 20 20 20 21 21 21 21 21 21 22 22 23 24 24 23 23 24 25 26 27 27 27 28 28 28 28 28 29 28 28
25 26 26 26 26 26 27 27 27 27 27 27 27 27 27 26 26 26 25 25 25 25 25 25 24 24 23 21 20 19 19 19 18 18 18 18 18 18 19 19 20 20 20 20 20 21 21 21 21 21 21 22 23 23 22 22 23 24 26 27 27 27 27 28 28 29 29 29 29
Wind_Direction
29 31 33 35 38 41 45 52 64 77 86 90 95 104 124 152 171 179 181 182 182 183 185 187 189 191 192 193 193 192 192 192 191 192 192 193 193 193 193 194 195 195 194 192 191 192 193 195 195 195 195 196 197 199 201 203 205 208 210 211 212 212 212 212 212 212 212 213 214
29 31 33 36 40 44 48 53 62 76 89 97 103 111 127 149 169 180 184 185 186 187 188 189 190 190 190 190 191 191 191 192 192 193 193 194 194 194 194 195 196 196 195 193 192 193 194 195 194 194 193 194 195 197 200 203 206 208 210 212 213 213 212 212 212 212 213 215 216
30 31 33 35 39 43 48 53 61 73 88 98 105 113 121 134 148 161 170 176 180 183 186 187 188 188 188 189 190 191 192 193 193 193 194 194 194 194 195 196 196 196 195 193 193 194 195 195 195 194 193 193 194 196 200 205 208 209 210 212 213 214 213 212 213 214 216 217 217
32 32 33 35 38 43 48 53 61 71 83 92 99 104 110 116 124 133 143 153 162 171 178 182 184 185 187 188 190 193 194 194 193 193 194 194 194 194 195 196 196 195 194 194 194 195 196 196 195 195 194 193 195 198 203 208 210 210 211 213 215 214 214 213 214 215 217 218 218
33 34 35 37 39 43 48 53 59 68 78 86 92 97 103 109 117 124 132 140 147 156 166 173 177 180 183 186 189 191 193 194 194 194 194 194 194 194 195 196 196 195 194 194 196 197 197 196 195 195 194 195 198 203 209 212 213 214 215 216 216 216 215 215 216 216 217 217 218
34 35 36 38 41 44 48 50 54 61 71 80 86 92 98 106 114 121 128 136 143 151 159 167 172 175 179 182 185 188 190 192 193 194 194 194 195 195 196 196 196 195 195 195 197 198 198 197 196 195 195 197 202 208 212 214 216 218 218 218 218 217 217 217 217 217 217 218 218
33 34 35 37 40 44 47 48 50 55 62 70 77 85 94 104 112 119 126 134 143 151 159 165 169 173 177 181 184 186 188 191 193 194 195 195 196 196 196 195 195 194 195 196 198 199 199 198 197 197 198 201 206 210 213 215 218 220 220 219 218 218 219 218 219 218 218 218 219
31 33 35 36 37 40 43 45 47 50 55 60 65 73 85 99 111 121 130 137 145 153 159 164 167 170 174 178 181 185 188 190 193 194 195 195 195 195 195 195 194 194 195 197 198 199 200 200 199 198 200 204 208 211 213 216 219 222 222 220 219 219 219 220 220 220 220 220 220
30 31 33 35 36 37 39 41 42 45 49 53 56 60 71 88 105 120 131 140 148 154 159 162 165 167 170 174 178 182 186 189 192 194 195 194 194 194 194 194 193 194 195 197 199 200 200 200 200 200 202 205 209 211 213 216 220 223 223 222 220 220 220 221 222 222 222 221 222
27 28 30 32 34 36 38 39 39 41 44 48 50 52 57 70 92 112 128 140 149 155 160 165 168 170 172 174 177 181 185 188 191 193 193 193 193 193 193 193 193 193 195 198 199 200 200 201 201 202 204 207 210 212 214 217 221 224 224 223 222 220 220 220 221 221 222 224 225
25 25 27 29 31 34 38 40 40 41 42 45 46 47 49 55 69 93 120 139 151 158 165 172 176 179 180 181 182 184 186 188 190 192 192 193 192 192 192 192 192 193 195 197 198 199 200 201 202 204 207 210 212 214 216 218 221 224 225 225 222 220 219 219 219 221 223 226 229
25 25 25 26 28 31 35 39 42 43 43 43 44 46 48 50 56 70 94 117 136 151 165 176 181 185 189 191 191 190 189 190 190 191 192 192 192 191 191 191 191 192 194 195 197 198 199 201 203 206 209 213 215 217 217 218 220 224 227 228 225 222 220 220 221 222 225 228 232
26 26 25 25 26 28 32 36 40 44 44 43 43 45 47 48 51 59 74 88 101 117 143 169 184 192 198 201 200 197 194 192 192 192 192 192 192 191 191 190 191 192 193 195 196 198 199 201 203 206 209 213 216 217 217 218 220 224 227 229 228 227 225 224 224 225 227 230 234
26 26 26 25 25 26 28 31 36 40 43 44 44 45 46 46 48 52 59 69 83 90 103 143 176 190 198 201 202 200 197 195 193 193 193 194 193 193 192 192 192 193 195 197 199 201 202 204 205 207 208 210 212 214 215 217 220 224 227 229 229 230 230 229 229 229 230 232 234
24 25 26 26 26 25 25 26 30 34 37 40 42 44 44 44 45 48 53 59 70 75 75 97 142 171 186 193 196 197 197 196 195 195 195 196 196 196 196 195 196 197 198 200 202 205 206 207 207 208 207 207 208 209 212 216 221 225 228 229 230 231 232 232 231 231 232 233 231
22 23 24 25 25 25 25 24 25 27 30 34 37 39 40 39 40 44 49 55 63 67 67 72 98 136 167 183 189 191 193 194 194 195 195 196 197 198 198 199 200 201 202 203 205 207 209 210 210 209 207 206 206 208 212 218 224 229 231 230 229 230 231 232 232 232 231 230 227
20 21 22 23 24 24 24 24 23 23 24 27 31 34 36 36 36 38 41 46 52 56 57 61 74 101 136 166 182 189 191 193 193 193 194 195 196 197 198 199 201 203 204 206 208 209 211 212 213 212 210 208 208 212 217 224 230 234 234 232 231 230 230 230 230 229 228 227 226
19 20 20 21 22 23 23 23 23 22 21 22 25 29 33 35 36 35 35 36 40 44 47 50 57 76 109 142 169 184 191 193 194 194 194 195 196 196 198 199 202 204 206 209 211 213 215 216 216 215 213 212 214 218 224 229 234 236 235 234 233 232 230 229 228 227 226 227 228
18 18 19 19 20 21 22 22 22 22 21 20 21 23 26 31 34 36 34 30 29 34 41 45 46 51 73 124 161 181 192 196 196 196 196 197 198 198 200 201 203 205 207 210 212 215 218 219 219 218 217 218 220 224 228 232 235 236 235 235 234 234 232 230 228 227 227 228 231
17 17 17 18 18 19 20 21 21 21 21 20 19 19 20 23 27 32 34 31 26 23 26 35 39 38 38 60 162 188 198 203 202 201 200 200 200 201 203 205 207 208 209 211 212 215 217 219 220 219 219 221 224 227 230 233 235 236 236 236 235 235 233 232 231 231 230 230 231
14 15 15 16 17 18 18 19 20 20 20 20 19 18 17 17 19 23 28 32 27 20 17 20 25 28 25 17 336 213 209 211 209 208 206 205 204 205 206 208 210 211 212 213 214 215 217 219 220 220 220 222 224 227 231 234 236 237 238 238 238 236 235 234 235 235 235 233 232
12 13 13 14 15 16 17 17 18 18 19 19 18 17 16 15 14 15 18 25 25 18 12 10 13 17 17 6 337 258 228 221 219 216 214 211 210 210 210 211 212 213 214 215 216 217 219 221 222 222 222 223 226 230 234 237 240 241 241 240 239 236 235 235 236 237 237 236 235
9 10 11 12 12 13 14 15 16 16 17 17 17 16 15 13 11 10 10 12 16 13 6 0 1 5 8 3 333 283 246 231 227 226 224 220 218 216 215 215 215 215 216 217 218 219 221 224 226 226 226 227 230 234 238 242 244 245 244 241 238 235 234 234 235 236 237 237 236
7 8 9 9 10 11 11 12 13 14 14 14 14 14 13 12 10 7 5 4 4 3 360 353 350 351 355 356 338 294 262 241 232 229 228 227 225 223 222 220 219 219 219 220 221 222 224 227 230 231 230 230 233 237 241 245 247 248 245 241 237 235 234 234 234 235 235 235 236
5 5 6 7 8 8 9 10 10 11 11 11 11 11 11 10 9 7 4 1 358 354 351 346 341 339 339 339 332 303 272 255 241 233 230 229 229 228 227 226 225 224 223 224 224 226 228 231 234 235 234 234 235 238 242 245 247 246 242 238 235 234 234 234 234 234 234 235 235
2 3 4 5 6 6 7 7 7 8 8 8 8 8 8 8 7 6 4 1 356 351 346 341 335 330 325 321 316 302 281 263 252 242 235 231 230 229 229 229 228 227 227 227 228 229 232 235 237 238 238 238 239 241 243 245 245 244 241 238 238 238 238 238 238 237 236 236 236
360 1 1 2 3 4 4 5 5 5 5 5 5 4 4 4 4 3 3 1 357 351 345 339 332 325 318 310 305 297 286 272 261 252 243 237 234 232 231 230 230 230 229 229 230 232 234 237 239 241 242 242 243 244 245 246 245 243 243 243 243 243 243 242 242 241 240 240 239
357 358 358 359 0 1 1 2 2 3 3 2 2 1 0 0 0 0 360 359 356 353 347 340 332 323 315 307 300 293 286 278 270 262 254 246 241 237 235 234 233 233 232 232 233 234 237 239 241 242 243 244 245 245 246 245 244 244 245 246 247 247 246 246 245 244 244 243 243
355 355 356 357 357 358 358 359 359 360 359 359 359 358 358 357 357 357 356 356 355 353 349 342 334 324 315 307 299 291 283 277 272 268 264 258 252 246 242 240 238 237 236 236 236 237 239 241 242 243 244 245 246 246 246 245 243 243 244 245 247 248 248 248 247 246 246 245 245
353 354 354 354 354 355 355 356 356 356 356 356 356 356 355 355 354 354 353 352 351 350 347 343 336 328 319 310 300 292 284 276 270 266 265 263 260 255 250 247 244 242 240 239 239 240 241 242 242 243 244 244 245 246 246 246 244 243 242 243 244 246 248 248 248 248 247 247 246
352 352 352 352 352 352 352 352 352 352 353 353 353 353 353 353 352 351 350 348 347 346 344 341 337 331 323 313 303 295 287 279 272 266 262 260 259 258 256 253 250 248 245 244 243 242 242 242 242 242 243 244 245 246 246 246 246 245 244 243 244 245 247 248 248 248 247 247 246
351 351 350 350 350 350 349 349 349 349 350 350 350 350 350 349 349 348 347 345 344 342 341 340 337 332 326 317 308 299 291 284 277 271 264 260 257 256 255 254 252 251 250 249 248 246 244 243 242 242 242 243 245 246 247 247 247 247 246 246 247 247 247 248 248 248 248 247 246
349 349 349 349 348 348 347 347 347 347 347 347 347 347 347 346 345 345 344 343 341 340 339 337 335 332 327 320 311 302 294 287 281 276 270 264 260 257 255 254 253 252 253 253 253 251 249 247 245 243 243 243 244 246 247 247 247 247 248 249 249 249 248 247 247 248 248 248 247
348 348 348 347 346 346 345 345 344 344 344 344 344 344 344 343 343 342 342 341 340 338 336 334 333 330 326 321 313 305 297 289 284 279 274 270 265 261 258 256 254 253 254 255 256 256 255 253 250 248 246 245 245 246 246 247 247 248 248 249 249 249 247 246 245 246 246 247 247
346 346 346 345 345 344 344 343 343 342 342 342 342 342 341 341 340 340 339 338 337 336 334 332 330 328 325 321 315 308 300 293 286 281 277 273 270 266 262 259 256 255 255 256 257 257 258 257 256 253 250 248 247 247 247 247 247 248 248 249 248 248 247 245 244 244 244 245 246
345 344 344 343 343 342 342 341 341 341 341 340 340 340 339 339 338 337 337 336 336 334 333 331 329 327 325 322 317 311 304 297 290 284 279 275 272 269 266 263 260 258 257 257 258 258 259 259 259 257 254 252 250 249 249 248 248 249 249 249 249 249 247 246 244 243 243 244 244
342 342 342 341 341 340 340 339 339 339 339 338 338 337 337 337 336 335 335 335 334 333 332 331 329 327 325 322 317 312 306 300 293 287 282 278 275 272 269 266 263 262 261 260 260 260 260 260 260 259 256 254 252 251 250 249 249 248 248 249 249 249 249 248 246 244 244 244 244
340 340 339 339 338 338 338 338 337 337 337 336 336 335 335 335 334 334 334 333 333 332 331 330 329 327 324 321 317 312 307 302 296 291 285 281 278 274 271 268 266 264 263 263 263 263 263 263 262 260 258 255 253 252 250 250 249 248 246 246 247 248 248 248 247 246 245 245 244
337 337 337 337 336 336 336 336 336 335 335 334 334 334 333 333 333 333 332 332 331 331 330 329 328 326 324 321 317 312 307 303 298 293 288 284 280 277 274 271 269 267 266 265 265 265 266 266 265 263 260 256 254 253 252 251 250 248 246 244 244 245 246 247 247 247 247 246 245
335 334 334 334 334 334 334 334 334 334 333 333 333 332 332 332 331 331 331 330 330 330 329 328 328 326 324 321 318 313 308 303 299 295 291 286 282 279 276 274 272 270 268 268 267 267 267 267 267 266 263 258 255 253 252 252 251 249 246 244 242 242 243 245 246 247 247 247 246
332 332 332 332 332 332 332 332 332 332 332 331 331 331 330 330 330 330 330 330 330 329 329 328 327 326 324 322 318 314 309 304 300 296 293 288 284 280 278 275 274 273 271 270 269 268 268 268 268 267 265 261 256 253 252 252 251 249 247 244 242 242 242 244 245 246 247 247 246